Minden, LA

4:09 AM CDT on September 29, 2016 (GMT -0500)
Minden

Weather History for KMNE - December, 2012

Change the Weather History Date:

Wednesday, December 12, 2012

  Actual Average (KBAD) Record (KBAD)
Temperature  
Mean Temperature 40 °F -  
Max Temperature 55 °F 55 °F 77 °F (1996)
Min Temperature 25 °F 36 °F 23 °F (2000)
Degree Days  
Heating Degree Days 25    
Moisture  
Dew Point 25 °F    
Average Humidity 65    
Maximum Humidity 94    
Minimum Humidity 24    
Precipitation  
Precipitation 0.00 in - - ()
Sea Level Pressure  
Sea Level Pressure 30.31 in    
Wind  
Wind Speed 1 mph (East)    
Max Wind Speed 8 mph    
Max Gust Speed -    
Visibility 10 miles    
Events      
Averages and records for this station are not official NWS values.
T = Trace of Precipitation, MM = Missing Value Source: NWS Daily Summary

Daily Weather History Graph

Daily Weather History Graph

Search for Another Location

Airport or City:

Trip Planner

Search our weather history database for the weather conditions in past years. The results will help you decide how hot, cold, wet, or windy it might be!

Date:

Astronomy

Dec. 12, 2012 Rise Set
Actual Time 7:06 AM CST 5:08 PM CST
Civil Twilight 6:39 AM CST 5:35 PM CST
Nautical Twilight 6:08 AM CST 6:06 PM CST
Astronomical Twilight 5:38 AM CST 6:36 PM CST
Moon 6:12 AM CST (12/12) 4:44 PM CST (12/12)
Length of Visible Light 10h 56m
Length of Day
10h 02m
Waning Crescent, 1% of the Moon is Illuminated
Dec 12
Waning Crescent
Dec 13
New
Dec 19
First Quarter
Dec 28
Full
Jan 4
Last Quarter

Hourly Weather History & Observations

Time (CST) Temp. Windchill Dew Point Humidity Pressure Visibility Wind Dir Wind Speed Gust Speed Precip Events Conditions
12:15 AM 29.8 °F - 26.8 °F 88% 30.27 in 10.0 mi Calm Calm - N/A   Clear
12:35 AM 30.0 °F - 26.6 °F 87% 30.27 in 10.0 mi Calm Calm - N/A   Clear
12:55 AM 30.0 °F - 26.2 °F 86% 30.27 in 10.0 mi Calm Calm - N/A   Clear
1:15 AM 29.3 °F 25.6 °F 26.4 °F 89% 30.26 in 10.0 mi North 3.5 mph - N/A   Clear
1:35 AM 29.3 °F - 26.2 °F 88% 30.27 in 10.0 mi Calm Calm - N/A   Clear
1:55 AM 28.9 °F - 25.9 °F 88% 30.26 in 10.0 mi Calm Calm - N/A   Clear
2:15 AM 28.9 °F - 26.1 °F 89% 30.26 in 10.0 mi Calm Calm - N/A   Clear
2:55 AM 28.0 °F - 25.7 °F 91% 30.27 in 10.0 mi Calm Calm - N/A   Clear
3:15 AM 28.0 °F - 25.5 °F 90% 30.27 in 10.0 mi Calm Calm - N/A   Clear
3:35 AM 27.7 °F - 25.7 °F 92% 30.27 in 10.0 mi Calm Calm - N/A   Clear
3:55 AM 27.9 °F - 25.7 °F 92% 30.27 in 10.0 mi Calm Calm - N/A   Clear
4:15 AM 27.1 °F - 25.0 °F 92% 30.27 in 10.0 mi Calm Calm - N/A   Clear
4:35 AM 27.5 °F - 25.3 °F 92% 30.28 in 10.0 mi Calm Calm - N/A   Clear
4:55 AM 27.3 °F - 25.3 °F 92% 30.29 in 10.0 mi Calm Calm - N/A   Clear
5:15 AM 26.4 °F - 24.3 °F 92% 30.29 in 10.0 mi Calm Calm - N/A   Clear
5:35 AM 26.4 °F - 24.6 °F 93% 30.29 in 10.0 mi Calm Calm - N/A   Clear
5:55 AM 26.4 °F - 24.8 °F 94% 30.30 in 10.0 mi Calm Calm - N/A   Clear
6:15 AM 26.4 °F - 24.8 °F 94% 30.31 in 10.0 mi Calm Calm - N/A   Clear
6:35 AM 25.9 °F - 24.1 °F 93% 30.32 in 10.0 mi Calm Calm - N/A   Clear
6:55 AM 25.7 °F - 23.7 °F 92% 30.32 in 10.0 mi Calm Calm - N/A   Clear
7:35 AM 26.2 °F - 24.3 °F 92% 30.33 in 10.0 mi Calm Calm - N/A   Clear
7:55 AM 28.2 °F - 25.9 °F 91% 30.34 in 10.0 mi Calm Calm - N/A   Clear
8:15 AM 31.3 °F - 28.4 °F 89% 30.34 in 7.0 mi Calm Calm - N/A   Clear
8:35 AM 34.3 °F - 29.7 °F 83% 30.36 in 10.0 mi Calm Calm - N/A   Clear
8:55 AM 38.5 °F - 30.7 °F 74% 30.37 in 10.0 mi Calm Calm - N/A   Clear
9:15 AM 39.9 °F - 31.8 °F 73% 30.38 in 10.0 mi Calm Calm - N/A   Clear
9:35 AM 43.2 °F 40.5 °F 27.7 °F 54% 30.38 in 10.0 mi East 4.6 mph - N/A   Clear
9:55 AM 45.0 °F 42.6 °F 26.8 °F 49% 30.39 in 10.0 mi East 4.6 mph - N/A   Clear
10:15 AM 45.5 °F 43.2 °F 25.7 °F 46% 30.39 in 10.0 mi East 4.6 mph - N/A   Clear
10:55 AM 47.8 °F - 22.6 °F 37% 30.37 in 10.0 mi Calm Calm - N/A   Clear
11:15 AM 49.1 °F - 23.9 °F 37% 30.37 in 10.0 mi Calm Calm - N/A   Clear
11:35 AM 49.6 °F - 22.5 °F 34% 30.36 in 10.0 mi East 5.8 mph - N/A   Clear
11:55 AM 51.6 °F - 22.6 °F 32% 30.34 in 10.0 mi ESE 8.1 mph - N/A   Clear
12:15 PM 52.0 °F - 21.7 °F 31% 30.32 in 10.0 mi East 5.8 mph - N/A   Clear
12:35 PM 52.7 °F - 19.2 °F 27% 30.32 in 10.0 mi East 8.1 mph - N/A   Clear
12:55 PM 53.8 °F - 21.2 °F 28% 30.32 in 10.0 mi East 8.1 mph - N/A   Clear
1:15 PM 54.0 °F - 18.5 °F 25% 30.30 in 10.0 mi ENE 6.9 mph - N/A   Clear
1:35 PM 54.5 °F - 19.9 °F 26% 30.30 in 10.0 mi SE 5.8 mph - N/A   Clear
1:55 PM 54.1 °F - 18.5 °F 25% 30.30 in 10.0 mi Calm Calm - N/A   Clear
2:15 PM 54.5 °F - 19.4 °F 25% 30.30 in 10.0 mi Calm Calm - N/A   Clear
2:35 PM 54.1 °F - 19.2 °F 25% 30.30 in 10.0 mi Calm Calm - N/A   Clear
2:55 PM 55.4 °F - 19.4 °F 25% 30.30 in 10.0 mi Calm Calm - N/A   Clear
3:15 PM 54.9 °F - 18.7 °F 24% 30.29 in 10.0 mi NE 3.5 mph - N/A   Clear
3:35 PM 55.0 °F - 19.8 °F 25% 30.29 in 10.0 mi Calm Calm - N/A   Clear
3:55 PM 55.4 °F - 19.6 °F 25% 30.29 in 10.0 mi Calm Calm - N/A   Clear
4:15 PM 54.1 °F - 19.4 °F 26% 30.29 in 10.0 mi Calm Calm - N/A   Clear
4:35 PM 53.2 °F - 20.3 °F 28% 30.29 in 10.0 mi Calm Calm - N/A   Clear
4:55 PM 52.0 °F - 21.7 °F 31% 30.29 in 10.0 mi Calm Calm - N/A   Clear
5:15 PM 48.0 °F - 23.9 °F 39% 30.29 in 10.0 mi Calm Calm - N/A   Clear
5:35 PM 44.8 °F - 28.8 °F 53% 30.29 in 10.0 mi Calm Calm - N/A   Clear
5:55 PM 42.1 °F - 29.1 °F 60% 30.29 in 10.0 mi Calm Calm - N/A   Clear
6:15 PM 39.7 °F - 31.1 °F 71% 30.30 in 10.0 mi Calm Calm - N/A   Clear
6:35 PM 39.6 °F - 30.4 °F 70% 30.30 in 10.0 mi Calm Calm - N/A   Clear
6:55 PM 39.0 °F - 30.4 °F 71% 30.30 in 7.0 mi Calm Calm - N/A   Clear
7:15 PM 38.3 °F - 31.1 °F 75% 30.30 in 10.0 mi Calm Calm - N/A   Clear
7:35 PM 37.6 °F - 30.6 °F 76% 30.31 in 10.0 mi Calm Calm - N/A   Clear
7:55 PM 36.5 °F - 30.9 °F 80% 30.32 in 10.0 mi Calm Calm - N/A   Clear
8:15 PM 36.1 °F - 30.4 °F 80% 30.32 in 10.0 mi Calm Calm - N/A   Clear
8:35 PM 35.6 °F - 30.7 °F 82% 30.32 in 10.0 mi Calm Calm - N/A   Clear
8:55 PM 35.6 °F - 29.8 °F 80% 30.32 in 10.0 mi Calm Calm - N/A   Clear
9:15 PM 36.1 °F 33.5 °F 29.7 °F 77% 30.32 in 10.0 mi East 3.5 mph - N/A   Clear
9:35 PM 37.4 °F - 27.0 °F 66% 30.33 in 10.0 mi Calm Calm - N/A   Clear
9:55 PM 38.7 °F - 25.3 °F 59% 30.34 in 10.0 mi Calm Calm - N/A   Clear
10:15 PM 36.7 °F 34.1 °F 27.0 °F 68% 30.34 in 10.0 mi East 3.5 mph - N/A   Clear
10:35 PM 37.6 °F - 27.1 °F 66% 30.34 in 10.0 mi Calm Calm - N/A   Clear
10:55 PM 36.9 °F - 26.6 °F 66% 30.34 in 10.0 mi Calm Calm - N/A   Clear
11:15 PM 34.7 °F 31.8 °F 27.5 °F 75% 30.34 in 10.0 mi East 3.5 mph - N/A   Clear
11:35 PM 34.2 °F - 28.6 °F 80% 30.34 in 10.0 mi Calm Calm - N/A   Clear
11:55 PM 33.8 °F - 27.7 °F 78% 30.33 in 10.0 mi Calm Calm - N/A   Clear